| time (UTC) | temp F | wind direction | speed MPH | gust MPH | rain 1hr in | rain 24hr in | rain mn in | humidity % | barometer mb |
| 20260508224535 | 29 | 271 | 0.0 | 0.0 | 0.00 | 0.00 | 0.00 | 33 | 1028.6 |
| 20260508223029 | 29 | 271 | 0.0 | 0.0 | 0.00 | 0.00 | 0.00 | 40 | 1028.6 |
| 20260508221528 | 30 | 271 | 0.0 | 0.0 | 0.00 | 0.00 | 0.00 | 42 | 1028.5 |
| 20260508220024 | 31 | 271 | 0.0 | 0.0 | 0.00 | 0.00 | 0.00 | 47 | 1028.5 |
| 20260508214520 | 31 | 271 | 0.0 | 0.0 | 0.00 | 0.00 | 0.00 | 52 | 1028.4 |
| 20260508213017 | 32 | 271 | 0.0 | 0.0 | 0.00 | 0.00 | 0.00 | 55 | 1028.4 |
| 20260508211514 | 33 | 271 | 0.0 | 0.0 | 0.00 | 0.00 | 0.00 | 58 | 1028.3 |
| 20260508210015 | 34 | 271 | 0.0 | 0.0 | 0.00 | 0.00 | 0.00 | 60 | 1028.1 |
| 20260508204510 | 35 | 271 | 0.0 | 0.0 | 0.00 | 0.00 | 0.00 | 61 | 1028.0 |
| 20260508203007 | 35 | 271 | 0.0 | 0.0 | 0.00 | 0.00 | 0.00 | 63 | 1027.8 |
| 20260508201506 | 36 | 271 | 0.0 | 0.0 | 0.00 | 0.00 | 0.00 | 63 | 1027.7 |
| 20260508200007 | 37 | 271 | 0.0 | 0.0 | 0.00 | 0.00 | 0.00 | 63 | 1027.6 |
| 20260508194506 | 39 | 271 | 0.0 | 0.0 | 0.00 | 0.00 | 0.00 | 62 | 1027.6 |
| 20260508193006 | 40 | 271 | 0.0 | 0.0 | 0.00 | 0.00 | 0.00 | 62 | 1027.7 |
| 20260508191504 | 41 | 271 | 0.0 | 0.0 | 0.00 | 0.00 | 0.00 | 60 | 1027.6 |
| 20260508190004 | 43 | 271 | 0.0 | 0.0 | 0.00 | 0.00 | 0.00 | 59 | 1027.6 |
| 20260508184502 | 45 | 271 | 0.0 | 0.0 | 0.00 | 0.00 | 0.00 | 56 | 1027.5 |
| 20260508183001 | 46 | 271 | 0.0 | 0.0 | 0.00 | 0.00 | 0.00 | 53 | 1027.5 |
| 20260508181601 | 48 | 271 | 0.0 | 0.0 | 0.00 | 0.00 | 0.00 | 50 | 1027.4 |
| 20260508180100 | 49 | 271 | 0.0 | 0.0 | 0.00 | 0.00 | 0.00 | 48 | 1027.2 |
| 20260508174605 | 51 | 99 | 0.0 | 0.0 | 0.00 | 0.00 | 0.00 | 46 | 1026.9 |
| 20260508173055 | 52 | 241 | 0.0 | 1.0 | 0.00 | 0.00 | 0.00 | 44 | 1026.8 |
| 20260508171557 | 55 | 309 | 0.0 | 0.0 | 0.00 | 0.00 | 0.00 | 30 | 1026.5 |
| 20260508170053 | 55 | 33 | 0.0 | 0.0 | 0.00 | 0.00 | 0.00 | 30 | 1026.4 |
| 20260508164550 | 56 | 44 | 0.0 | 1.0 | 0.00 | 0.00 | 0.00 | 29 | 1026.2 |
| 20260508163111 | 57 | 304 | 0.0 | 5.0 | 0.00 | 0.00 | 0.00 | 28 | 1026.0 |
| 20260508161547 | 58 | 28 | 0.0 | 1.0 | 0.00 | 0.00 | 0.00 | 28 | 1025.9 |
| 20260508160047 | 58 | 257 | 0.0 | 3.0 | 0.00 | 0.00 | 0.00 | 28 | 1025.9 |
| 20260508154552 | 59 | 323 | 0.0 | 9.0 | 0.00 | 0.00 | 0.00 | 29 | 1025.8 |
| 20260508153046 | 60 | 166 | 0.0 | 1.0 | 0.00 | 0.00 | 0.00 | 26 | 1025.7 |
| 20260508151546 | 60 | 18 | 0.0 | 3.0 | 0.00 | 0.00 | 0.00 | 28 | 1025.8 |
| 20260508150045 | 60 | 146 | 0.0 | 0.0 | 0.00 | 0.00 | 0.00 | 27 | 1025.8 |
| 20260508144545 | 60 | 355 | 0.0 | 0.0 | 0.00 | 0.00 | 0.00 | 28 | 1025.7 |
| 20260508143045 | 60 | 30 | 0.0 | 1.0 | 0.00 | 0.00 | 0.00 | 26 | 1025.7 |
| 20260508141541 | 59 | 11 | 0.0 | 1.0 | 0.00 | 0.00 | 0.00 | 25 | 1025.9 |
| 20260508140039 | 59 | 78 | 0.0 | 8.0 | 0.00 | 0.00 | 0.00 | 26 | 1025.8 |
| 20260508134541 | 59 | 263 | 0.0 | 11.0 | 0.00 | 0.00 | 0.00 | 28 | 1025.9 |
| 20260508133045 | 59 | 345 | 0.0 | 15.0 | 0.00 | 0.00 | 0.00 | 23 | 1025.9 |
| 20260508131545 | 60 | 290 | 0.0 | 10.0 | 0.00 | 0.00 | 0.00 | 24 | 1025.9 |
| 20260508130042 | 59 | 16 | 1.0 | 12.0 | 0.00 | 0.00 | 0.00 | 28 | 1025.9 |
| 20260508124535 | 59 | 233 | 1.0 | 12.0 | 0.00 | 0.00 | 0.00 | 28 | 1026.0 |
| 20260508123037 | 59 | 5 | 0.0 | 2.0 | 0.00 | 0.00 | 0.00 | 29 | 1025.9 |
| 20260508121535 | 58 | 111 | 0.0 | 10.0 | 0.00 | 0.00 | 0.00 | 30 | 1026.0 |
| 20260508120031 | 59 | 294 | 0.0 | 0.0 | 0.00 | 0.00 | 0.00 | 28 | 1026.0 |
| 20260508114530 | 59 | 259 | 0.0 | 17.0 | 0.00 | 0.00 | 0.00 | 32 | 1026.0 |
| 20260508113030 | 58 | 360 | 0.0 | 1.0 | 0.00 | 0.00 | 0.00 | 30 | 1026.1 |
| 20260508111528 | 58 | 316 | 0.0 | 3.0 | 0.00 | 0.00 | 0.00 | 30 | 1026.0 |
| 20260508110031 | 58 | 11 | 0.0 | 1.0 | 0.00 | 0.00 | 0.00 | 32 | 1026.1 |
| 20260508104525 | 57 | 42 | 0.0 | 2.0 | 0.00 | 0.00 | 0.00 | 31 | 1026.0 |
| 20260508103023 | 57 | 355 | 0.0 | 3.0 | 0.00 | 0.00 | 0.00 | 33 | 1026.1 |
| 20260508101532 | 57 | 313 | 0.0 | 2.0 | 0.00 | 0.00 | 0.00 | 34 | 1025.9 |
| 20260508100021 | 57 | 24 | 0.0 | 9.0 | 0.00 | 0.00 | 0.00 | 33 | 1026.0 |
| 20260508094519 | 57 | 37 | 0.0 | 11.0 | 0.00 | 0.00 | 0.00 | 35 | 1025.9 |
| 20260508093036 | 56 | 28 | 0.0 | 2.0 | 0.00 | 0.00 | 0.00 | 37 | 1025.8 |
| 20260508091512 | 55 | 41 | 0.0 | 10.0 | 0.00 | 0.00 | 0.00 | 37 | 1025.9 |
| 20260508090023 | 55 | 330 | 0.0 | 5.0 | 0.00 | 0.00 | 0.00 | 37 | 1025.9 |
| 20260508084507 | 54 | 302 | 0.0 | 3.0 | 0.00 | 0.00 | 0.00 | 38 | 1025.8 |
| 20260508083004 | 54 | 30 | 0.0 | 2.0 | 0.00 | 0.00 | 0.00 | 41 | 1025.7 |
| 20260508081616 | 53 | 336 | 0.0 | 8.0 | 0.00 | 0.00 | 0.00 | 40 | 1025.7 |
| 20260508080056 | 53 | 15 | 0.0 | 2.0 | 0.00 | 0.00 | 0.00 | 42 | 1025.6 |
| 20260508074555 | 52 | 75 | 0.0 | 2.0 | 0.00 | 0.00 | 0.00 | 43 | 1025.6 |
| 20260508073052 | 52 | 288 | 0.0 | 0.0 | 0.00 | 0.00 | 0.00 | 49 | 1025.4 |
| 20260508071545 | 50 | 23 | 0.0 | 2.0 | 0.00 | 0.00 | 0.00 | 48 | 1025.3 |
| 20260508070041 | 50 | 328 | 0.0 | 0.0 | 0.00 | 0.00 | 0.00 | 50 | 1025.2 |
| 20260508064536 | 48 | 317 | 0.0 | 8.0 | 0.00 | 0.00 | 0.00 | 52 | 1025.1 |
| 20260508063033 | 48 | 293 | 0.0 | 9.0 | 0.00 | 0.00 | 0.00 | 52 | 1025.0 |
| 20260508061530 | 47 | 9 | 0.0 | 2.0 | 0.00 | 0.00 | 0.00 | 54 | 1024.8 |
| 20260508060027 | 46 | 348 | 0.0 | 0.0 | 0.00 | 0.00 | 0.00 | 58 | 1024.6 |
| 20260508054524 | 45 | 348 | 0.0 | 0.0 | 0.00 | 0.00 | 0.00 | 59 | 1024.5 |
| 20260508053020 | 44 | 13 | 0.0 | 0.0 | 0.00 | 0.00 | 0.00 | 59 | 1024.3 |
| 20260508051516 | 43 | 311 | 0.0 | 0.0 | 0.00 | 0.00 | 0.00 | 60 | 1024.1 |
| 20260508050015 | 42 | 17 | 0.0 | 0.0 | 0.00 | 0.00 | 0.00 | 61 | 1024.0 |
| 20260508044513 | 41 | 338 | 0.0 | 0.0 | 0.00 | 0.00 | 0.00 | 60 | 1023.8 |
| 20260508043004 | 39 | 355 | 0.0 | 0.0 | 0.00 | 0.00 | 0.00 | 60 | 1023.7 |
| 20260508041602 | 38 | 327 | 0.0 | 0.0 | 0.00 | 0.00 | 0.00 | 59 | 1023.6 |
| 20260508040059 | 37 | 336 | 0.0 | 0.0 | 0.00 | 0.00 | 0.00 | 58 | 1023.5 |
| 20260508034601 | 35 | 324 | 0.0 | 0.0 | 0.00 | 0.00 | 0.00 | 55 | 1023.3 |
| 20260508033051 | 33 | 342 | 0.0 | 0.0 | 0.00 | 0.00 | 0.00 | 49 | 1023.2 |
| 20260508031558 | 31 | 300 | 0.0 | 0.0 | 0.00 | 0.00 | 0.00 | 44 | 1023.0 |
| 20260508030105 | 31 | 298 | 0.0 | 0.0 | 0.00 | 0.00 | 0.00 | 47 | 1022.8 |
| 20260508024645 | 31 | 298 | 0.0 | 0.0 | 0.00 | 0.00 | 0.00 | 50 | 1022.7 |
| 20260508023047 | 32 | 298 | 0.0 | 0.0 | 0.00 | 0.00 | 0.00 | 54 | 1022.5 |
| 20260508021540 | 32 | 298 | 0.0 | 0.0 | 0.00 | 0.00 | 0.00 | 56 | 1022.2 |
| 20260508020038 | 33 | 298 | 0.0 | 0.0 | 0.00 | 0.00 | 0.00 | 59 | 1021.9 |
| 20260508014536 | 33 | 298 | 0.0 | 0.0 | 0.00 | 0.00 | 0.00 | 60 | 1021.8 |
| 20260508013034 | 34 | 298 | 0.0 | 0.0 | 0.00 | 0.00 | 0.00 | 61 | 1021.6 |
| 20260508011534 | 34 | 291 | 0.0 | 0.0 | 0.00 | 0.00 | 0.00 | 61 | 1021.4 |
| 20260508010039 | 35 | 290 | 0.0 | 0.0 | 0.00 | 0.00 | 0.00 | 62 | 1021.3 |
| 20260508004531 | 35 | 290 | 0.0 | 0.0 | 0.00 | 0.00 | 0.00 | 61 | 1021.1 |
| 20260508003026 | 35 | 289 | 0.0 | 0.0 | 0.00 | 0.00 | 0.00 | 61 | 1020.9 |
| 20260508001531 | 34 | 279 | 0.0 | 0.0 | 0.00 | 0.00 | 0.00 | 60 | 1020.7 |
| 20260508000022 | 34 | 279 | 0.0 | 0.0 | 0.00 | 0.00 | 0.00 | 61 | 1020.5 |
| 20260507234520 | 34 | 279 | 0.0 | 0.0 | 0.00 | 0.00 | 0.00 | 61 | 1020.4 |
| 20260507233018 | 34 | 279 | 0.0 | 0.0 | 0.00 | 0.00 | 0.00 | 61 | 1020.1 |
| 20260507231515 | 33 | 279 | 0.0 | 0.0 | 0.00 | 0.00 | 0.00 | 60 | 1019.9 |
| 20260507230014 | 33 | 279 | 0.0 | 0.0 | 0.00 | 0.00 | 0.00 | 59 | 1019.7 |